Change the Weather History Date:

Wednesday, October 23, 2013

  Actual Average Record
Temperature  
Mean Temperature 50 °F -  
Max Temperature 55 °F 55 °F 71 °F (2007)
Min Temperature 44 °F 42 °F 28 °F (1997)
Degree Days  
Heating Degree Days 16    
Moisture  
Dew Point 40 °F    
Average Humidity 72    
Maximum Humidity 93    
Minimum Humidity 51    
Precipitation  
Precipitation 0.20 in - - ()
Sea Level Pressure  
Sea Level Pressure 29.69 in    
Wind  
Wind Speed 3 mph (North)    
Max Wind Speed 6 mph    
Max Gust Speed -    
Visibility 10 miles    
Events Rain    
Averages and records for this station are not official NWS values.
T = Trace of Precipitation, MM = Missing Value Source: NWS Daily Summary

Daily Weather History Graph

Daily Weather History Graph

Search for Another Location

Airport or City:

Trip Planner

Search our weather history database for the weather conditions in past years. The results will help you decide how hot, cold, wet, or windy it might be!

Date:

Astronomy

Oct. 23, 2013 Rise Set
Actual Time 7:01 AM EDT 5:46 PM EDT
Civil Twilight 6:33 AM EDT 6:14 PM EDT
Nautical Twilight 6:00 AM EDT 6:47 PM EDT
Astronomical Twilight 5:28 AM EDT 7:19 PM EDT
Moon 9:12 PM EDT (10/23) 11:18 AM EDT (10/23)
Length of Visible Light 11h 41m
Length of Day
10h 44m
Waning Gibbous, 79% of the Moon is Illuminated
Oct 23
Waning Gibbous
Oct 26
Last Quarter
Nov 3
New
Nov 10
First Quarter
Nov 17
Full

Hourly Weather History & Observations

Time (EDT) Temp. Windchill Dew Point Humidity Pressure Visibility Wind Dir Wind Speed Gust Speed Precip Events Conditions
12:52 AM 53.1 °F - 39.9 °F 61% 29.78 in 10.0 mi Variable 3.5 mph - N/A   Clear
1:52 AM 52.0 °F - 39.0 °F 61% 29.79 in 10.0 mi Variable 4.6 mph - N/A   Clear
2:52 AM 52.0 °F - 37.9 °F 59% 29.79 in 10.0 mi Variable 5.8 mph - N/A   Clear
3:52 AM 48.9 °F - 34.0 °F 56% 29.80 in 10.0 mi Calm Calm - N/A   Clear
4:52 AM 48.9 °F - 37.0 °F 64% 29.79 in 10.0 mi North 3.5 mph - N/A   Scattered Clouds
5:52 AM 48.9 °F - 37.9 °F 66% 29.77 in 10.0 mi Variable 3.5 mph - N/A   Clear
6:52 AM 46.0 °F - 37.0 °F 71% 29.77 in 10.0 mi Calm Calm - N/A   Clear
7:52 AM 44.1 °F 42.5 °F 37.0 °F 76% 29.76 in 10.0 mi NNW 3.5 mph - N/A   Clear
8:52 AM 50.0 °F - 37.9 °F 63% 29.76 in 10.0 mi Calm Calm - N/A   Clear
9:52 AM 55.0 °F - 37.0 °F 51% 29.75 in 10.0 mi NNE 4.6 mph - N/A   Clear
10:52 AM 54.0 °F - 36.0 °F 51% 29.73 in 10.0 mi NE 5.8 mph - N/A   Mostly Cloudy
11:52 AM 54.0 °F - 37.0 °F 53% 29.71 in 10.0 mi NNE 3.5 mph - N/A   Overcast
12:52 PM 54.0 °F - 37.9 °F 55% 29.66 in 10.0 mi Variable 4.6 mph - N/A   Overcast
1:52 PM 53.1 °F - 37.9 °F 57% 29.64 in 10.0 mi Variable 3.5 mph - N/A   Overcast
2:52 PM 52.0 °F - 41.0 °F 66% 29.62 in 10.0 mi Calm Calm - 0.00 in   Overcast
3:52 PM 50.0 °F - 42.1 °F 74% 29.60 in 10.0 mi Calm Calm - 0.01 in Rain Light Rain
4:52 PM 48.9 °F - 42.1 °F 77% 29.60 in 9.0 mi North 3.5 mph - 0.00 in Rain Light Rain
5:52 PM 46.9 °F - 43.0 °F 86% 29.60 in 8.0 mi Calm Calm - 0.03 in Rain Light Rain
6:52 PM 46.9 °F - 44.1 °F 90% 29.64 in 9.0 mi Calm Calm - 0.01 in Rain Light Rain
7:52 PM 46.0 °F - 43.0 °F 89% 29.63 in 8.0 mi Calm Calm - 0.07 in Rain Light Rain
8:52 PM 45.0 °F 43.5 °F 42.1 °F 90% 29.63 in 7.0 mi Variable 3.5 mph - 0.05 in Rain Light Rain
9:15 PM 44.6 °F 42.2 °F 42.8 °F 93% 29.62 in 10.0 mi NNW 4.6 mph - 0.01 in Rain Light Rain
9:30 PM 44.6 °F - 42.8 °F 93% 29.62 in 10.0 mi Calm Calm - 0.02 in Rain Light Rain
9:52 PM 45.0 °F - 42.1 °F 90% 29.63 in 10.0 mi Calm Calm - 0.02 in Rain Light Rain
10:52 PM 45.0 °F - 42.1 °F 90% 29.63 in 10.0 mi Calm Calm - 0.01 in   Overcast
11:52 PM 44.1 °F - 42.1 °F 93% 29.64 in 10.0 mi Calm Calm - N/A   Overcast